Theta_e
314 315 316 314 315 315 315 316 316 316 315 315 314 312 310 309 308 306 305 306 306 307 307 307 308 308 308 308 307 307 308 311 315 316 318 321 319 319 317 312 312 311 312 313 312 314 314 314 314 314 316 318 321 322 320 322 327 331 334 328 324 325 321 319 321 323 323 320 318 318 318 319 317 317 315 315 316 317 317 317 317 319 325 331 332 331 333 334
314 315 315 314 315 314 315 315 315 315 315 315 315 312 310 310 308 306 305 305 306 307 307 308 307 308 309 307 307 307 308 311 318 320 319 320 317 313 312 311 312 312 312 313 314 315 314 314 313 314 318 318 320 322 322 323 325 330 328 324 330 328 316 317 318 319 322 320 318 318 318 318 318 317 315 315 316 316 316 316 318 321 326 332 331 331 334 332
314 314 314 314 314 314 315 315 315 314 314 314 314 312 310 309 308 306 305 305 306 307 307 308 308 308 308 307 307 308 310 314 318 321 320 319 315 310 311 312 312 312 312 313 316 316 314 314 312 313 318 316 320 322 322 323 320 330 332 325 330 326 317 318 318 317 319 318 318 317 316 317 317 317 315 315 316 316 317 316 319 321 324 332 332 329 332 332
314 313 313 314 314 314 315 314 314 313 313 313 313 312 310 309 308 307 306 305 305 306 307 308 308 308 307 307 307 309 314 317 319 321 320 317 312 311 313 313 313 312 312 313 315 315 314 315 311 312 316 315 319 320 321 323 319 324 331 331 326 322 321 319 317 319 319 317 318 318 317 317 316 316 315 316 316 315 317 315 318 321 321 329 332 328 330 330
315 313 312 313 314 313 314 313 314 313 312 312 312 311 310 308 307 307 306 305 305 305 307 307 308 308 307 307 307 312 315 313 316 319 317 314 311 312 314 313 314 314 313 314 314 314 313 313 311 314 316 316 318 318 319 321 320 319 322 325 321 319 322 317 318 321 319 319 319 318 317 316 315 316 316 316 317 317 318 316 318 319 318 325 330 327 327 328
315 313 312 313 313 313 313 313 313 313 312 312 312 311 310 308 307 306 306 305 305 305 306 307 308 307 307 308 308 315 317 311 316 318 314 312 312 313 314 313 314 314 314 314 314 314 314 314 313 316 316 316 318 317 317 317 318 320 318 318 319 321 321 316 318 319 319 321 319 318 316 316 316 316 317 317 318 319 318 320 321 317 314 320 328 327 327 328
314 313 312 313 313 313 312 312 312 312 313 313 313 312 309 308 307 306 306 305 305 305 306 306 308 307 308 309 309 316 319 316 317 316 312 312 313 313 313 313 313 314 315 314 315 315 316 315 314 316 316 315 316 315 317 316 317 320 317 317 318 320 319 317 318 317 319 320 318 317 316 316 318 316 317 317 319 319 317 318 318 314 312 318 326 326 326 327
314 313 312 312 312 312 311 312 312 312 312 313 314 312 309 309 308 307 306 305 305 305 306 306 307 307 307 311 313 316 317 318 317 313 312 313 313 313 313 314 314 314 316 315 316 315 315 315 314 315 315 314 316 316 316 315 315 316 316 317 317 317 317 317 317 317 318 318 316 317 317 318 318 317 317 318 320 320 316 316 316 314 313 319 327 327 326 326
314 314 313 312 312 311 311 311 312 312 312 312 313 312 311 310 309 307 306 305 305 305 306 307 307 307 308 313 317 317 316 318 316 312 312 312 312 313 316 316 315 316 317 315 315 315 315 316 315 315 315 315 316 317 316 316 314 315 316 318 317 316 316 316 316 317 317 317 317 317 318 319 317 316 318 320 321 319 317 318 319 318 317 319 325 325 324 326
314 313 313 312 311 310 310 311 311 311 311 312 312 312 312 310 309 307 306 306 305 306 307 307 307 308 308 313 315 314 318 318 314 312 312 312 313 313 316 316 315 318 317 315 315 316 316 317 317 317 316 316 316 317 318 318 316 316 319 319 319 317 316 317 316 316 317 317 316 317 318 319 316 316 318 321 320 317 318 319 317 319 320 318 321 322 319 322
313 313 312 312 311 310 309 310 310 310 311 312 312 312 311 310 309 307 306 306 305 306 307 307 308 309 310 314 314 313 318 317 313 313 312 311 313 313 315 315 315 318 318 317 316 316 317 316 316 317 315 314 317 318 318 318 317 318 319 318 318 318 317 317 317 316 317 317 316 317 318 317 317 318 319 319 319 316 318 320 317 319 320 316 318 320 317 318
313 313 312 311 310 310 309 309 310 310 311 312 312 312 310 309 308 307 306 306 306 306 307 308 308 310 313 313 315 316 317 316 313 312 312 313 314 314 315 316 315 317 317 317 316 315 316 315 317 318 315 315 317 317 316 317 317 319 320 319 317 316 318 318 318 318 317 317 318 316 316 317 318 319 318 319 321 318 317 320 318 319 318 317 318 318 318 316
313 312 311 311 310 310 310 309 310 310 311 312 312 311 309 309 308 307 307 306 306 307 307 309 309 312 313 311 315 317 315 314 312 312 313 314 314 315 315 315 316 316 316 317 315 314 314 316 319 319 317 318 317 314 316 317 318 319 318 321 319 316 320 319 317 318 317 317 319 315 313 320 322 319 317 319 322 319 318 319 318 318 319 318 317 316 318 315
312 312 311 310 310 310 310 310 310 311 311 312 312 310 309 308 307 307 307 307 307 308 309 310 310 312 311 311 315 317 314 312 312 313 314 315 315 315 315 315 316 315 316 315 313 313 315 316 317 318 317 318 316 314 317 317 318 319 316 322 324 318 321 321 317 318 317 316 319 315 314 321 322 318 317 319 321 320 319 320 319 319 318 318 319 317 317 315
312 311 310 309 309 309 310 310 311 311 311 312 311 309 308 307 307 307 307 308 309 309 310 310 311 312 310 312 316 315 313 313 314 313 314 316 315 315 314 314 314 314 314 313 314 315 315 316 317 319 317 315 317 317 319 318 318 319 317 322 324 319 322 322 317 319 318 316 317 315 317 320 319 318 318 317 318 319 320 321 320 320 319 318 319 318 317 316
312 311 309 309 309 310 310 310 311 312 311 311 309 308 308 308 308 308 309 310 310 310 311 312 312 311 311 314 316 314 313 316 315 313 315 317 317 316 314 314 314 314 314 314 316 316 316 319 319 319 318 316 321 324 324 321 322 323 320 322 323 319 321 322 318 319 319 318 317 315 317 321 319 318 319 318 318 319 320 321 321 321 321 320 318 318 318 317
312 310 309 309 310 310 310 310 311 311 311 309 309 309 309 309 309 309 310 311 312 310 312 315 311 310 310 311 315 316 316 317 315 313 317 318 317 315 314 316 315 314 315 316 317 317 316 318 318 316 318 320 322 328 328 321 320 323 319 320 324 321 319 322 320 319 319 318 318 317 317 319 320 319 319 320 320 319 320 322 323 322 321 321 321 319 319 319
312 311 309 310 311 311 311 311 311 311 310 309 309 310 310 311 310 310 312 313 312 309 310 312 310 310 311 309 314 317 317 317 314 314 316 316 316 315 316 316 314 315 317 317 317 317 318 320 322 321 318 318 318 326 333 327 323 325 320 319 323 320 319 323 321 317 317 317 318 319 318 319 320 318 317 318 319 319 321 322 322 323 322 322 323 322 320 319
312 311 310 310 311 311 311 312 311 311 309 309 310 312 312 313 314 314 313 313 311 308 309 310 310 313 314 313 317 318 317 315 313 314 315 316 316 316 317 316 316 318 317 320 318 315 324 324 324 325 318 317 318 321 332 331 325 326 326 325 325 321 318 319 318 316 317 317 319 320 318 318 318 317 315 316 317 317 318 319 319 320 320 321 322 322 321 320
311 310 310 311 311 311 311 311 311 310 310 312 312 312 312 313 315 314 314 315 313 310 311 312 312 315 318 318 318 317 316 315 315 316 314 314 316 316 317 316 320 320 318 325 319 316 331 329 323 329 325 321 320 319 325 324 320 323 326 324 323 321 317 317 319 318 317 316 320 322 319 318 316 315 315 314 315 316 317 318 318 318 318 318 320 320 320 320
311 310 311 311 311 311 311 312 312 311 311 314 315 316 314 313 314 312 313 315 311 310 314 315 314 316 318 317 316 315 316 317 316 316 315 315 317 316 317 318 320 320 319 325 322 320 333 331 327 335 330 321 319 319 320 319 319 324 325 323 322 323 318 316 318 318 316 315 320 323 318 316 315 313 314 314 315 316 317 318 318 318 318 317 319 319 318 318
311 312 312 312 312 312 312 312 312 310 312 314 316 319 317 312 312 312 313 311 310 311 314 314 315 316 316 313 314 315 317 318 317 318 317 315 317 317 318 319 319 321 319 320 323 322 326 329 332 332 324 319 318 319 320 322 325 327 326 323 324 325 318 317 320 318 317 316 320 324 319 315 315 314 313 314 315 315 316 317 318 317 317 317 318 318 318 318
312 313 313 313 313 312 313 313 312 310 311 314 315 317 316 311 310 311 312 311 312 313 313 314 316 318 317 313 314 316 316 318 320 321 317 314 318 319 318 318 318 322 319 319 324 321 320 325 328 322 319 319 318 319 323 323 325 328 326 323 325 326 319 317 319 318 317 316 317 322 321 317 317 318 318 316 314 314 314 315 317 318 318 318 318 318 319 319
314 314 314 314 314 314 314 313 313 311 310 313 315 316 315 311 309 311 314 314 314 314 313 312 314 318 318 314 314 316 315 317 321 319 315 315 318 318 318 318 318 320 319 321 324 322 322 321 319 318 320 325 321 321 328 323 320 326 330 328 327 326 320 319 320 320 321 321 320 321 322 323 325 325 324 320 316 315 316 317 317 319 319 319 320 319 318 319
315 315 315 315 315 315 314 313 314 313 312 312 313 315 315 312 309 310 314 313 313 314 311 311 313 315 315 314 315 317 315 317 320 318 314 316 317 317 318 316 316 320 319 319 320 320 321 317 317 318 321 329 327 321 328 328 320 319 325 327 324 326 325 323 325 324 323 323 323 321 319 327 333 325 319 316 315 315 317 318 319 320 321 320 321 320 319 322
316 316 316 316 316 315 314 316 316 315 314 312 311 312 312 312 310 311 314 314 314 313 310 310 311 311 314 315 316 317 315 316 317 316 315 315 315 315 317 316 316 319 318 318 318 318 319 317 321 325 325 331 329 321 324 329 323 316 319 324 328 334 330 326 327 321 319 321 321 320 320 324 323 315 314 315 314 316 316 316 318 319 321 323 321 320 322 326
317 317 317 317 317 316 316 319 317 315 316 314 313 312 310 310 309 310 315 316 316 314 310 309 308 310 314 314 315 315 314 316 315 315 315 315 315 313 315 317 315 315 317 321 320 317 318 319 323 328 330 330 327 322 321 325 324 320 322 327 333 335 328 328 329 321 321 324 325 328 325 322 320 313 314 317 316 319 319 319 320 316 316 320 321 322 325 330
319 318 318 318 317 316 317 319 316 316 317 316 314 312 310 310 309 311 316 315 314 313 310 309 308 310 314 313 313 313 312 316 317 316 314 313 314 315 316 317 317 318 318 320 322 318 319 323 325 327 329 329 328 326 325 324 324 324 324 328 333 333 330 335 335 328 326 323 324 331 322 318 328 325 317 317 317 319 321 321 320 316 316 318 320 324 328 334
318 318 319 318 317 317 318 318 317 317 318 316 313 311 310 309 309 315 318 312 312 312 310 310 309 312 315 313 313 312 313 316 317 317 314 313 314 313 315 316 317 318 315 320 326 321 319 322 324 326 326 327 326 325 327 328 323 324 325 328 333 334 333 336 335 329 324 319 322 331 322 314 326 330 320 316 317 321 324 321 317 319 324 324 325 330 333 336
317 318 319 319 318 317 318 319 318 319 319 315 312 311 311 312 312 312 311 310 315 315 309 309 311 314 315 313 312 313 316 318 317 316 315 315 315 313 314 313 317 322 320 326 330 321 317 316 317 322 322 324 325 321 324 327 323 324 330 331 331 335 337 336 335 326 317 319 325 330 325 315 319 330 326 317 318 322 323 320 319 324 329 329 331 335 337 338
315 317 319 319 319 318 319 319 318 320 318 312 311 311 313 319 317 311 308 311 319 317 309 309 312 313 313 313 313 313 317 318 316 316 316 316 316 316 315 313 321 329 325 326 325 320 320 318 317 319 317 321 325 320 321 327 328 329 333 331 324 331 338 334 332 324 315 321 327 327 326 317 317 327 324 318 321 321 318 319 323 327 329 329 332 336 339 342
314 315 316 318 318 318 319 319 319 320 315 310 313 314 314 317 315 314 314 313 317 317 313 312 313 313 312 312 313 314 319 320 316 315 318 319 317 317 317 317 323 326 320 322 322 320 323 324 321 318 316 320 325 323 321 326 333 330 326 324 317 320 327 326 327 326 321 322 322 322 324 319 318 322 319 320 324 321 317 320 327 329 328 331 336 340 341 341
314 314 315 317 318 318 319 318 318 317 312 311 316 320 318 315 312 315 317 314 315 317 316 314 313 313 312 312 312 313 318 320 316 315 317 318 317 316 317 319 321 321 323 324 322 321 323 324 321 316 317 319 321 321 318 321 328 325 320 321 319 319 320 320 322 322 323 324 321 319 320 321 322 321 319 322 320 319 318 321 330 332 332 337 343 346 344 339
313 314 315 316 316 317 318 316 315 314 311 312 317 319 317 313 311 314 315 315 317 318 317 315 313 312 312 313 314 314 316 317 315 316 317 317 317 317 316 316 315 320 327 323 319 321 321 323 323 318 318 321 319 319 320 322 323 322 322 321 320 324 324 324 323 321 324 327 322 317 318 324 325 319 320 321 319 321 320 320 325 327 331 337 338 339 338 337
312 314 315 316 316 316 316 315 315 314 313 315 317 315 311 310 313 314 314 317 319 319 318 315 313 312 312 316 316 314 317 319 316 317 318 317 317 318 317 315 314 318 323 317 317 319 316 321 325 318 317 321 319 318 319 321 319 319 323 320 319 325 324 323 326 326 325 324 321 320 324 328 323 318 320 320 319 320 317 317 319 320 326 327 327 329 331 335
311 312 314 315 315 316 315 315 316 314 315 318 316 313 311 314 319 318 317 320 320 319 316 313 314 314 312 317 318 313 316 322 318 317 318 317 316 317 317 316 314 314 316 315 320 320 317 321 322 317 317 318 318 319 319 320 319 318 321 319 323 326 321 320 322 320 318 317 318 320 323 322 317 316 317 315 316 316 314 316 317 317 321 321 324 331 332 333
310 311 312 314 315 316 316 316 316 314 316 319 314 311 315 320 322 322 322 322 318 317 316 315 316 315 314 318 320 316 317 321 319 317 319 318 318 318 316 316 315 314 314 313 317 323 325 324 320 318 318 317 317 321 322 322 320 321 322 320 321 322 323 326 324 320 317 316 319 319 317 316 314 315 317 315 314 314 316 319 319 319 320 320 327 334 335 334
308 309 311 312 313 315 315 316 315 314 316 317 313 313 318 321 320 320 322 322 318 316 317 319 319 317 316 318 319 318 317 319 318 318 319 318 318 319 315 315 316 314 313 312 313 319 322 320 317 317 319 319 318 319 320 320 319 323 325 321 322 325 326 326 322 321 319 317 321 322 316 315 314 314 314 314 315 316 318 319 319 322 323 322 328 336 345 344
307 310 312 311 311 314 316 315 315 315 316 316 314 315 317 318 317 317 319 320 320 319 317 321 322 318 317 318 318 318 316 317 318 319 318 316 317 319 315 315 317 314 312 313 315 320 321 316 316 316 317 318 318 319 321 321 320 323 321 317 322 328 328 325 321 321 321 318 319 319 315 314 315 315 314 315 318 317 316 319 320 322 323 323 325 334 349 349
307 310 313 312 312 314 314 313 314 316 315 314 314 314 315 316 317 316 316 318 320 320 320 324 324 318 318 318 318 318 317 318 319 318 318 316 316 318 316 314 317 316 313 312 315 320 318 314 316 317 316 318 319 319 320 320 321 322 320 318 320 320 322 324 322 321 322 321 319 315 314 314 313 314 316 317 318 317 318 321 321 320 321 320 319 328 343 343
306 308 311 313 314 313 312 313 315 314 312 311 313 314 313 316 318 317 317 318 319 319 321 324 324 322 321 319 318 318 317 318 319 318 317 316 315 319 318 316 317 318 315 313 316 317 315 317 322 321 319 321 324 323 319 318 319 320 319 320 319 318 320 321 320 320 319 322 324 319 314 313 312 314 317 317 318 320 323 321 318 322 324 322 322 333 341 335
305 306 310 313 313 312 312 314 315 313 311 311 312 313 313 315 318 319 318 317 317 319 320 320 322 324 325 323 321 320 317 318 319 319 318 316 316 319 320 317 317 319 317 315 315 317 319 323 325 324 320 320 322 322 319 317 317 318 318 318 317 319 321 320 322 324 321 321 326 322 317 314 314 316 318 317 316 320 324 320 316 321 326 326 329 335 337 334
305 306 309 313 312 311 312 314 314 313 312 313 313 313 314 315 317 318 319 318 318 319 319 319 321 322 322 323 322 321 318 317 318 319 319 317 315 320 322 320 318 319 318 316 316 317 319 320 319 319 319 321 323 324 321 318 318 319 320 319 318 320 322 324 328 328 324 322 322 319 318 316 314 318 319 318 317 318 320 319 316 321 330 336 337 335 336 339
304 306 308 311 311 311 312 313 313 313 313 314 315 314 314 316 316 317 319 318 318 319 318 319 320 320 321 322 321 321 319 318 318 319 320 318 317 321 325 323 319 319 318 320 319 316 318 320 319 319 319 322 326 325 321 319 319 321 325 323 319 320 321 322 323 321 321 325 322 319 319 315 314 320 321 321 322 320 320 321 319 320 326 334 339 339 339 340
303 304 306 308 309 310 312 312 312 313 313 314 315 315 315 316 316 317 318 317 317 318 318 318 319 320 321 321 319 319 318 319 320 321 322 323 321 322 324 324 323 321 322 325 323 318 322 324 320 318 318 320 323 324 323 323 320 320 326 325 319 319 319 318 320 319 319 323 322 318 317 314 314 317 317 319 321 319 320 324 322 319 321 326 331 334 334 334
303 304 304 305 307 309 311 311 312 313 313 314 315 315 315 316 316 317 317 317 316 317 318 319 319 319 320 319 319 318 318 318 319 320 322 324 323 322 321 321 323 321 321 326 326 324 326 325 318 316 317 317 322 327 326 324 322 320 322 323 320 320 319 318 320 320 317 317 318 317 316 315 315 314 313 316 319 317 317 318 320 320 321 323 324 325 325 326
302 303 304 305 307 308 309 310 312 312 313 313 314 314 314 315 316 316 316 317 317 316 318 318 318 318 319 319 318 319 318 318 318 319 320 321 322 322 319 319 321 320 320 322 324 326 325 321 319 317 317 320 324 327 324 320 320 320 320 321 321 321 321 319 318 318 317 316 317 316 316 316 315 313 313 315 318 318 315 314 316 318 319 320 320 319 319 319
302 302 304 305 307 307 307 309 310 311 312 312 313 313 314 314 315 316 316 316 316 317 318 318 318 318 318 318 318 318 318 319 319 319 319 318 320 321 321 321 319 319 323 322 321 325 324 321 320 319 319 322 323 323 324 322 320 320 319 319 320 320 321 320 318 317 318 319 317 316 318 318 315 313 314 315 316 316 314 314 315 315 317 318 317 317 316 316
301 301 303 304 305 306 306 308 309 310 310 311 312 313 314 314 314 315 315 316 316 316 317 318 318 318 318 318 318 318 318 319 319 318 317 316 318 319 321 322 318 315 322 324 320 322 322 320 322 320 319 321 321 321 323 322 321 321 320 320 321 320 319 319 318 318 319 320 319 318 319 319 315 314 315 315 315 316 315 315 315 315 315 316 316 317 317 318
301 301 303 305 305 305 305 307 309 310 309 309 311 311 312 313 314 314 315 315 316 316 316 317 317 317 318 318 318 318 318 318 319 319 317 316 318 319 319 321 321 317 318 321 320 319 319 319 321 321 319 319 318 318 319 319 320 321 321 322 322 320 319 317 317 317 318 319 319 318 319 318 315 315 316 315 315 317 316 315 315 315 315 315 316 319 319 320
300 300 301 304 305 304 305 306 308 309 308 308 309 310 311 312 313 313 314 314 315 316 315 316 316 316 317 317 317 318 318 318 320 320 318 317 318 320 320 320 321 319 318 319 318 318 317 317 317 318 320 319 318 319 319 319 319 320 321 322 320 320 319 318 319 319 318 318 318 318 319 317 315 316 317 316 315 316 317 316 315 315 314 315 317 319 320 320
299 299 300 301 303 303 304 306 307 308 308 307 308 309 309 310 311 313 313 313 314 315 315 315 315 316 317 316 316 317 318 318 319 318 318 318 319 321 321 320 319 318 317 317 316 314 314 315 316 317 319 320 319 320 320 318 319 320 321 319 318 318 319 319 319 320 318 317 318 319 318 316 316 317 318 317 316 316 316 315 315 314 314 316 318 319 319 318
Wind_Speed
9 8 7 6 5 5 4 4 3 2 3 3 4 6 6 7 7 8 8 8 8 8 8 8 7 7 6 5 5 4 3 3 4 5 5 4 5 6 7 7 6 6 5 4 4 2 1 2 3 3 2 1 1 1 0 1 2 4 3 3 1 2 0 3 4 4 5 4 5 5 5 7 4 1 1 2 5 3 3 4 4 7 7 8 13 23 29 28
9 9 7 6 6 5 4 4 3 3 4 4 4 6 7 7 8 8 8 9 9 9 9 9 8 7 6 5 5 4 3 3 2 4 7 6 5 6 7 6 5 5 5 4 3 0 1 3 4 4 4 1 1 1 1 1 2 3 3 3 3 3 0 4 2 2 4 7 7 6 6 5 5 5 2 2 1 2 4 2 4 7 6 8 14 22 26 26
9 9 8 6 6 5 5 4 3 3 5 5 5 6 7 7 7 8 8 9 9 10 9 9 9 8 6 5 4 3 1 2 0 3 7 8 6 7 6 5 5 5 5 5 2 1 2 5 6 4 5 1 1 2 1 1 1 2 3 3 4 5 2 5 3 1 1 8 9 5 5 4 4 5 3 3 4 4 5 4 4 4 4 7 9 16 22 23
8 9 8 7 7 6 5 5 3 3 4 5 5 6 7 7 7 7 8 8 9 10 10 9 9 8 6 5 4 3 2 3 1 3 7 9 8 7 5 4 5 5 5 5 4 4 6 8 4 4 4 1 1 2 2 1 1 1 3 4 5 3 2 4 3 3 2 6 9 6 5 4 3 4 3 5 5 3 6 7 8 8 10 11 9 13 19 19
8 8 8 8 7 7 6 5 4 3 4 4 4 5 6 6 7 7 7 8 9 10 10 9 9 7 6 4 3 3 3 3 2 2 7 9 8 7 5 4 4 4 4 4 4 4 6 6 2 3 3 1 1 3 2 4 2 1 1 4 3 3 3 3 2 4 4 5 6 6 6 4 3 3 4 7 5 5 6 7 10 10 13 15 13 14 16 15
8 7 8 9 8 7 6 5 4 3 3 3 3 4 5 6 7 7 7 8 9 10 10 9 8 7 5 3 3 4 3 2 1 2 6 8 8 7 5 4 4 4 5 4 3 2 4 3 3 2 2 2 3 3 3 3 3 3 1 1 2 3 4 2 2 4 4 7 5 4 3 2 4 1 3 7 6 7 6 7 8 9 14 19 17 16 13 13
8 7 7 9 9 8 6 5 4 3 3 2 3 3 5 6 6 7 8 8 9 9 9 9 8 7 4 3 4 2 2 2 2 4 7 8 8 7 6 5 4 4 5 4 1 1 1 1 1 2 3 2 3 3 3 1 4 5 2 1 3 4 4 2 1 2 5 7 3 2 2 2 5 3 1 4 8 6 6 5 6 9 16 19 15 14 14 15
8 7 7 10 12 9 6 6 4 3 3 4 3 3 4 5 6 7 7 8 9 9 9 9 8 6 5 5 4 2 1 3 4 6 7 8 8 7 6 5 5 4 3 2 2 1 2 1 3 3 2 2 4 4 3 4 3 3 2 1 2 3 2 2 2 2 4 5 2 4 3 3 5 4 0 5 9 6 7 4 8 11 14 15 13 13 12 13
8 7 8 11 14 11 7 6 5 5 4 5 4 3 4 5 6 7 7 8 9 9 9 8 8 6 6 5 4 2 2 4 7 7 7 8 7 7 6 5 5 2 0 2 3 2 2 1 2 2 3 3 3 4 4 5 1 2 4 3 3 2 1 2 2 1 1 2 3 4 1 5 4 2 2 8 9 7 6 6 8 10 11 11 11 12 12 11
9 9 9 12 15 13 8 7 7 6 5 5 5 4 5 6 7 7 7 8 8 9 8 8 7 6 7 4 4 2 3 5 9 8 8 7 7 7 5 4 3 1 1 2 1 4 3 2 2 2 3 1 3 2 3 5 2 2 5 4 5 4 2 2 2 1 1 1 3 4 2 5 3 1 3 8 7 7 7 6 7 9 10 11 9 11 13 13
9 9 10 11 14 14 10 8 7 6 6 5 4 5 6 6 7 7 7 8 8 8 7 7 7 6 7 4 4 3 2 4 8 8 8 6 5 5 4 3 2 1 2 2 3 3 3 3 2 1 1 2 3 3 2 3 2 5 7 5 2 2 0 1 3 2 1 1 2 5 1 3 2 1 7 8 4 7 10 7 7 8 8 9 9 9 11 13
9 9 9 9 10 11 9 9 8 6 5 4 4 5 6 7 7 7 8 8 8 8 7 7 7 7 6 4 2 4 2 5 7 7 7 5 5 4 3 3 2 2 2 2 3 3 4 1 3 3 1 2 3 2 1 1 4 6 7 5 1 3 3 3 3 2 2 0 3 3 2 4 2 7 11 6 2 6 9 8 7 8 7 8 9 8 8 13
10 9 9 9 9 9 9 8 7 6 5 4 5 5 7 7 7 7 8 8 8 7 7 6 6 8 5 1 2 2 3 7 9 8 7 6 5 4 4 3 2 2 1 1 4 5 5 2 5 6 2 4 3 1 1 2 4 3 3 5 2 5 4 6 2 2 3 0 3 3 1 6 6 11 10 4 5 7 8 8 7 7 7 7 8 7 8 12
10 9 9 10 10 9 9 8 7 6 5 5 5 6 7 7 6 7 7 7 7 7 7 6 7 6 3 0 1 3 6 9 9 9 9 7 7 6 4 3 2 2 1 2 5 5 4 3 5 5 2 4 3 1 3 4 3 2 1 2 3 2 4 6 1 4 3 1 2 6 2 6 8 11 9 4 7 8 7 8 6 6 6 6 7 8 8 10
10 10 11 11 11 10 9 8 7 5 4 5 5 5 5 6 6 6 7 7 7 8 7 7 8 6 2 1 0 6 8 7 8 9 9 7 7 5 4 4 4 3 3 4 6 5 4 4 5 4 1 1 4 4 3 3 3 3 2 3 2 3 3 6 1 5 5 2 2 6 2 6 8 9 8 2 6 8 7 7 6 6 6 7 7 7 8 9
10 10 11 12 11 10 9 8 6 6 5 4 3 4 5 5 6 6 7 8 8 8 8 6 8 6 2 1 2 6 5 4 7 9 8 8 7 6 6 7 5 5 5 4 6 5 5 5 3 2 2 2 4 5 4 4 4 3 3 2 3 2 2 4 3 2 5 1 1 2 3 4 4 6 7 5 2 6 6 7 7 7 8 8 7 7 8 8
11 10 10 11 10 9 8 7 5 5 4 3 4 5 6 6 7 8 8 9 8 8 6 3 6 4 1 1 3 3 4 4 8 10 9 8 8 9 7 5 3 4 4 4 4 3 4 4 2 1 3 2 3 5 5 3 3 4 1 1 4 3 3 2 4 3 3 4 1 2 3 6 7 7 7 6 2 4 5 7 8 8 8 8 7 7 8 8
11 11 11 12 11 9 8 6 5 4 3 4 5 7 9 9 9 9 9 10 8 6 2 1 4 3 2 2 3 3 5 8 9 9 9 8 9 9 4 2 3 3 4 4 3 3 3 3 2 2 2 2 2 5 4 3 4 3 3 2 3 3 4 3 3 2 2 3 2 3 4 9 12 10 8 7 5 6 8 9 8 8 8 8 7 7 8 9
12 12 12 12 11 10 8 7 5 4 4 5 7 11 12 10 8 6 6 7 5 4 2 2 4 3 2 4 3 4 9 11 9 8 7 7 7 6 3 3 4 4 4 3 3 1 2 3 4 3 1 3 3 5 6 7 7 7 6 5 3 3 2 3 3 3 0 2 3 6 6 9 11 11 9 9 7 7 10 9 7 8 8 8 7 8 8 9
13 12 11 11 11 10 8 7 5 5 6 8 11 12 9 6 5 2 2 2 3 2 2 3 5 3 1 2 4 9 11 9 5 5 6 6 6 5 3 3 5 5 3 3 1 0 4 4 1 3 5 7 6 7 7 5 6 7 5 4 3 4 1 3 2 5 1 2 5 7 7 9 10 11 10 9 8 7 9 9 9 9 8 8 9 9 10 10
13 11 10 9 10 9 8 6 5 6 8 10 11 6 3 4 3 2 2 3 4 2 2 2 5 3 2 6 11 11 8 4 2 2 6 6 5 5 2 2 5 3 1 4 3 2 5 4 4 7 8 8 6 6 6 4 6 6 5 5 2 1 2 2 2 5 3 2 5 4 5 11 10 11 11 8 8 8 9 10 11 12 10 9 10 12 12 10
13 11 10 9 9 9 7 6 5 7 9 10 7 2 0 2 3 3 4 1 4 1 4 3 5 4 3 8 12 7 4 3 2 1 5 5 3 3 2 3 5 3 1 3 4 4 5 1 7 8 6 4 3 5 8 6 6 5 4 5 2 2 2 2 3 4 1 2 4 5 6 11 10 10 11 10 10 10 9 11 11 11 10 9 10 11 11 10
12 11 11 11 10 8 6 4 5 7 9 9 5 1 1 3 4 2 3 3 2 0 2 3 3 3 3 3 8 4 3 4 3 3 6 6 2 2 5 5 5 5 2 4 5 4 2 4 8 5 4 7 6 5 8 6 5 4 4 4 1 3 1 2 4 4 2 1 2 4 6 10 9 7 10 11 11 9 8 10 9 8 10 11 12 12 12 12
11 11 11 11 10 7 5 4 4 6 9 9 6 4 2 4 5 0 1 2 2 2 1 2 2 4 4 3 7 6 3 3 4 4 7 7 4 2 4 5 5 5 3 5 8 6 4 6 4 3 6 7 6 5 7 6 2 1 3 5 3 2 2 2 2 3 3 3 3 4 5 8 5 4 7 7 5 6 6 6 8 8 10 11 11 12 11 10
12 11 11 11 9 6 4 3 3 6 9 7 8 8 4 2 5 1 2 2 1 1 2 3 1 3 6 5 7 7 3 2 1 3 8 8 5 3 2 3 4 4 6 6 7 5 5 5 1 4 5 6 7 3 3 6 2 3 1 5 6 5 4 1 3 5 5 5 3 4 4 6 5 5 8 7 6 7 6 4 8 9 9 9 10 12 10 7
12 12 11 10 8 6 4 2 3 7 7 4 7 9 8 4 4 1 3 4 2 2 1 3 2 5 8 5 5 4 3 1 2 1 6 5 2 3 2 2 2 4 7 5 4 2 2 1 3 6 5 7 7 2 2 5 6 1 3 4 5 7 6 4 5 4 1 3 3 3 3 5 8 8 8 6 7 9 8 8 10 9 8 9 10 10 7 6
13 12 12 10 9 9 4 1 5 8 5 4 6 8 7 5 3 1 4 5 3 3 4 1 1 6 8 5 6 5 3 4 1 3 3 3 1 3 3 3 2 2 3 4 2 2 2 2 4 5 6 6 5 2 3 6 8 2 4 4 6 7 6 5 6 3 2 3 4 3 4 2 8 8 5 2 6 9 9 11 12 9 8 9 9 9 7 7
15 14 13 12 11 10 5 3 6 6 1 1 7 9 6 5 3 1 5 3 2 2 4 1 1 5 5 3 5 5 3 4 5 1 1 3 0 4 3 5 6 5 2 6 4 4 1 5 4 5 5 3 4 3 4 7 7 5 5 5 6 7 6 5 6 3 1 2 5 4 2 2 6 9 5 1 4 8 10 12 11 8 8 9 9 8 7 6
15 17 16 14 12 10 5 1 2 3 0 3 6 10 9 6 2 3 4 2 1 1 1 2 3 3 2 3 4 3 2 2 3 2 2 2 0 3 3 5 5 6 1 5 6 4 0 5 6 6 5 4 4 2 2 6 4 4 3 6 5 5 5 5 5 3 3 2 5 5 3 2 5 8 6 3 2 6 9 9 8 7 7 6 5 4 3 3
9 15 19 17 13 12 9 5 5 3 0 2 6 12 11 5 3 4 3 3 2 1 1 2 2 3 6 7 2 1 3 3 1 2 2 1 2 4 2 1 3 5 2 6 4 1 2 1 2 3 3 5 5 2 1 3 5 5 6 7 6 6 5 4 3 4 3 3 7 7 7 5 4 6 5 3 3 6 6 5 3 4 4 2 5 5 6 5
5 8 16 19 16 14 9 4 6 4 1 4 11 13 8 4 3 5 5 3 2 1 2 2 1 5 11 11 5 2 4 3 1 4 3 1 2 3 1 1 4 4 3 4 3 4 5 2 0 0 0 4 6 4 5 4 5 6 5 5 4 4 4 5 5 4 1 6 6 5 3 4 4 6 5 6 6 6 3 0 1 1 2 2 2 4 5 5
4 4 9 18 18 16 10 3 4 4 3 9 12 8 5 3 1 4 4 1 1 3 4 4 3 6 9 8 6 5 4 3 2 5 5 4 4 3 3 4 4 4 0 3 1 3 3 2 2 2 2 3 7 5 5 6 5 6 5 6 4 2 3 3 3 1 3 6 4 3 2 3 6 6 6 9 10 7 4 4 4 4 3 4 4 6 6 4
4 3 4 13 16 14 11 6 6 6 7 9 6 4 5 4 5 7 4 2 2 3 4 4 5 8 9 7 5 5 4 3 4 4 3 4 5 5 3 4 5 4 3 5 3 1 2 5 1 2 2 1 6 6 3 1 0 4 5 6 5 3 1 3 4 1 4 5 4 3 2 3 4 3 8 12 11 7 5 6 7 7 7 6 6 6 5 4
4 3 3 8 12 12 11 10 10 7 7 7 4 4 5 5 6 7 6 3 1 3 3 5 7 9 8 5 5 6 4 1 6 5 3 4 5 5 5 5 4 3 4 4 4 5 4 4 3 5 3 4 7 6 7 6 4 5 5 6 6 5 5 5 4 3 4 4 3 3 1 3 2 3 7 8 8 8 5 4 4 4 6 5 5 5 4 4
3 4 3 4 10 13 12 10 8 5 5 5 4 5 8 7 5 5 6 4 1 3 3 6 9 8 5 1 3 7 4 2 5 5 4 5 5 6 6 5 6 4 5 5 2 3 4 5 6 3 2 8 9 5 6 7 2 3 3 5 4 6 5 3 3 5 3 1 3 2 3 5 4 6 8 7 9 10 8 8 7 6 6 4 5 6 4 5
3 3 2 3 8 12 12 10 7 5 4 6 5 6 7 5 3 3 4 4 4 5 7 7 5 5 5 2 3 6 3 3 5 4 3 4 3 6 6 6 8 8 6 6 3 2 3 4 4 2 1 5 7 3 4 4 2 2 2 4 5 5 7 4 2 0 3 2 4 2 5 5 3 7 9 8 9 8 7 9 9 10 9 7 6 5 4 5
3 1 2 4 5 10 12 10 7 7 4 5 7 8 3 1 2 1 1 2 5 8 9 5 3 4 6 3 4 7 3 3 4 4 3 3 3 5 7 4 6 11 9 6 3 3 5 2 4 2 1 4 2 4 2 2 3 5 3 6 3 2 3 4 1 2 2 3 4 2 6 5 2 5 4 2 1 4 5 7 8 9 8 7 8 6 5 6
2 1 2 5 6 8 11 12 10 7 4 2 7 7 2 1 2 1 2 1 4 6 6 5 4 4 6 5 4 6 5 4 5 5 4 4 4 6 9 4 5 12 12 7 4 3 4 3 5 2 3 4 3 4 1 4 2 5 4 4 4 2 1 2 3 2 1 3 5 3 5 4 5 6 1 3 1 4 7 7 6 8 7 6 6 7 7 6
0 1 1 5 8 7 11 15 12 7 4 2 6 5 1 1 3 1 1 2 2 3 4 5 3 3 5 6 5 5 5 6 7 6 4 5 4 6 11 8 5 11 12 9 6 3 3 4 4 1 1 2 3 2 5 2 2 2 1 2 2 3 4 3 3 3 4 3 4 4 3 4 7 6 7 6 5 5 7 7 4 5 5 3 4 6 7 6
1 1 0 7 12 10 13 14 8 4 3 3 4 3 1 1 4 3 2 3 2 1 2 2 2 5 5 6 6 6 5 5 8 6 4 6 5 4 8 8 5 7 11 11 7 2 2 3 4 3 3 0 1 4 7 7 4 2 3 3 2 1 2 2 2 3 4 4 3 3 5 8 6 5 8 9 6 6 6 1 2 2 2 2 5 6 5 4
0 1 1 10 17 17 16 9 2 2 3 2 3 3 2 1 3 3 2 4 2 0 2 1 2 4 4 5 6 6 5 4 6 6 3 5 5 3 5 8 7 6 8 8 7 4 3 3 4 1 1 3 6 6 7 11 10 8 7 8 7 5 4 2 3 2 2 4 5 4 6 12 5 6 7 8 6 6 7 4 2 3 4 5 6 5 1 1
1 1 2 12 21 20 13 3 1 3 2 2 3 3 3 3 2 2 1 4 2 0 1 1 1 2 2 3 4 5 6 5 6 6 4 6 7 5 5 7 10 9 8 7 7 6 4 4 4 3 3 5 7 6 4 7 6 3 3 5 5 5 6 6 6 4 1 3 3 4 4 12 4 7 5 6 6 5 5 3 2 4 6 6 7 7 4 3
2 1 1 14 22 16 6 2 3 3 2 3 4 3 4 5 3 2 1 2 3 2 1 1 0 1 1 1 2 5 6 5 7 8 5 6 6 4 4 5 9 9 6 6 5 3 2 3 3 2 3 3 5 5 3 1 1 2 3 3 4 4 5 5 5 4 3 4 4 3 6 11 2 5 3 4 3 1 0 1 2 3 6 6 5 5 5 5
2 1 1 10 19 11 3 4 5 5 4 4 5 5 4 4 5 5 4 4 4 3 3 2 0 1 1 2 2 2 2 3 5 6 4 4 4 1 5 2 7 8 5 4 5 5 4 3 4 3 1 3 4 4 4 3 1 3 3 4 6 6 5 3 2 2 2 6 8 5 7 11 3 4 4 5 5 4 4 3 1 1 4 6 5 5 5 6
1 0 2 4 9 5 2 2 3 5 6 6 6 7 6 4 5 8 7 5 4 3 3 3 2 2 1 2 3 1 2 0 2 2 2 2 2 2 6 6 1 4 1 1 2 6 6 4 5 6 6 6 4 4 4 3 2 2 3 6 8 9 10 5 2 3 5 9 8 6 9 13 8 2 3 6 7 5 6 6 4 2 2 4 5 5 6 6
1 1 1 1 1 1 1 1 2 3 6 8 6 6 9 6 3 6 8 6 5 5 4 3 4 4 2 2 3 2 2 1 2 1 1 1 1 2 3 5 6 3 3 6 4 2 4 3 7 9 10 9 7 6 6 6 6 6 7 8 8 9 11 8 4 6 10 8 6 9 12 15 17 14 4 5 5 4 3 4 5 5 5 5 6 7 8 7
1 2 3 3 0 1 2 2 2 3 4 7 6 4 9 9 4 4 5 5 6 7 5 3 5 6 5 6 5 4 3 1 2 0 1 1 1 2 2 4 6 7 6 5 5 3 4 3 6 8 8 7 6 4 5 9 10 11 11 10 10 10 11 11 10 12 10 5 8 13 11 12 22 19 4 2 6 5 2 3 6 5 6 7 8 10 10 8
2 1 2 3 2 3 5 5 7 6 4 4 4 4 8 10 8 5 4 3 4 6 4 3 6 10 11 11 8 5 5 5 3 4 3 2 1 2 4 3 4 6 5 3 4 3 5 3 2 4 4 5 4 2 4 6 5 5 7 10 10 11 13 15 18 16 9 7 12 12 9 12 20 15 2 2 7 6 5 7 8 6 7 9 9 11 10 8
2 2 3 2 1 3 4 4 7 8 7 5 3 5 8 12 13 9 5 4 4 6 6 6 8 11 11 11 10 7 6 7 6 6 5 4 4 2 1 1 2 5 5 4 3 2 3 1 1 3 2 4 4 2 4 5 2 2 3 7 8 11 14 15 16 14 7 7 13 11 6 12 15 11 6 7 7 6 8 8 8 10 12 10 9 10 9 8
2 0 1 2 1 1 1 3 7 8 8 6 5 5 6 10 14 10 6 8 7 6 8 10 10 10 9 9 9 8 9 9 8 7 7 6 5 4 4 3 1 3 4 3 3 3 2 0 2 4 2 6 3 3 1 4 3 2 5 6 8 9 10 9 9 7 5 9 13 11 10 14 11 6 10 13 7 4 9 11 11 13 12 8 6 8 8 9
4 1 1 1 3 2 2 2 5 6 6 7 7 7 7 9 11 9 6 8 10 8 10 14 12 7 7 9 8 9 9 8 6 6 8 9 7 5 4 4 4 3 1 2 2 3 2 1 2 4 2 7 4 4 5 3 5 2 8 13 14 9 5 5 5 6 8 10 10 8 9 13 8 2 8 15 10 7 11 15 15 12 7 4 6 8 9 10
9 5 1 1 2 2 2 2 5 6 6 8 10 11 9 7 5 7 5 6 9 11 12 14 12 7 6 10 13 12 8 6 5 3 4 4 3 3 3 4 7 7 5 4 3 2 3 3 1 2 3 5 2 4 4 3 4 5 11 15 14 10 8 7 6 8 9 8 5 7 9 11 9 5 9 15 14 12 12 13 14 11 5 4 6 9 10 10
Wind_Direction
187 176 190 190 193 199 192 193 186 177 177 175 191 195 194 201 204 200 198 200 207 213 215 215 218 226 233 252 267 270 268 219 185 195 212 214 214 222 206 200 205 198 193 192 196 203 227 292 240 185 134 104 117 176 8 348 53 63 80 107 219 227 284 273 220 181 143 150 179 190 158 133 165 194 120 43 52 78 88 75 66 36 48 91 118 136 144 150
187 180 193 194 198 203 205 204 192 198 190 188 201 198 199 204 206 200 197 199 204 212 216 218 221 226 236 252 261 272 268 214 189 226 226 229 222 199 186 189 198 198 199 197 207 258 32 308 261 159 103 69 263 52 24 315 83 98 125 131 219 206 29 314 242 152 123 151 173 192 171 147 179 174 132 161 196 129 110 92 74 65 59 92 120 135 144 152
191 187 196 197 200 205 206 199 197 214 205 202 204 201 207 210 209 205 199 199 203 211 215 219 223 227 239 249 261 277 246 139 135 248 221 218 204 180 176 191 199 205 207 198 218 279 252 293 279 170 104 90 250 77 84 334 93 157 117 123 242 202 162 335 359 43 148 154 158 189 174 159 193 158 137 179 177 168 169 177 119 126 164 149 145 145 149 155
213 207 202 198 203 203 199 201 213 227 220 218 211 204 211 214 215 212 205 203 205 211 215 217 222 227 239 248 258 243 142 89 294 227 196 193 181 169 173 191 197 205 211 216 238 262 270 298 291 164 112 202 270 79 152 244 188 165 113 162 231 178 125 319 334 357 10 136 154 167 128 126 183 152 157 153 139 230 228 203 184 188 180 168 170 162 160 161
231 225 207 197 201 200 200 208 224 234 231 227 220 211 208 213 217 214 210 207 207 212 215 216 221 226 236 245 238 204 132 91 260 206 180 178 163 162 176 188 195 201 203 219 238 266 281 297 12 104 91 170 150 76 210 229 146 106 144 171 208 132 117 279 300 359 10 98 121 120 116 146 152 145 178 150 152 228 230 207 201 194 173 168 172 168 168 168
228 224 201 194 199 200 205 215 229 231 230 233 236 225 207 206 214 215 214 210 209 213 215 216 218 222 231 232 208 187 146 159 248 160 176 168 152 162 170 178 184 193 194 197 231 298 295 318 54 104 102 132 166 158 209 225 118 120 206 92 32 109 127 241 291 350 30 85 97 118 144 155 121 192 211 161 186 216 207 193 192 193 170 163 161 161 170 179
219 219 195 192 199 201 209 221 228 214 203 222 243 238 208 202 209 215 215 211 211 212 214 214 215 218 219 191 176 152 141 221 220 159 171 157 154 161 156 167 162 175 184 175 242 293 263 17 45 171 115 115 183 174 176 135 93 113 176 12 55 91 112 171 196 12 60 96 139 131 103 140 152 197 256 198 222 214 209 193 142 144 149 149 153 166 179 184
217 218 198 198 203 204 211 217 220 211 207 216 232 242 209 205 212 215 214 212 212 213 214 212 210 212 198 172 146 79 341 222 172 156 162 152 154 153 145 146 142 165 177 174 253 225 151 163 234 194 117 216 180 152 135 88 58 112 165 196 98 79 116 142 102 66 73 105 105 73 98 217 189 176 180 238 240 215 202 172 112 120 134 146 161 176 183 186
221 222 212 213 213 208 208 211 213 216 221 220 217 218 211 217 220 218 213 211 211 215 215 208 207 205 190 172 114 94 250 187 156 155 156 152 152 150 147 140 143 158 209 242 237 145 129 167 233 188 177 219 144 134 121 99 273 200 151 142 108 102 156 118 86 90 115 127 94 84 297 275 232 197 261 244 233 204 174 140 128 130 141 161 171 180 185 187
221 226 223 225 224 220 213 210 215 222 230 223 204 195 208 220 220 217 211 208 209 213 214 204 202 191 183 164 96 153 241 166 160 159 154 156 150 148 146 144 156 137 9 254 144 102 131 177 237 212 182 152 97 102 99 117 196 161 115 104 117 145 174 111 126 207 162 92 113 122 253 283 275 282 265 258 238 179 156 151 154 147 159 178 178 186 190 190
218 224 227 231 230 225 218 216 220 224 225 210 196 203 211 214 214 214 208 203 204 206 208 201 194 179 166 134 121 195 243 169 167 155 152 158 149 148 142 147 173 123 62 79 110 114 150 190 265 223 156 71 82 51 60 127 134 120 108 85 102 138 338 79 135 204 126 52 151 126 167 288 5 308 231 243 240 160 162 174 173 168 177 185 185 191 192 199
217 223 228 228 223 217 214 217 218 219 219 209 214 220 211 208 208 208 203 200 201 198 197 194 186 174 144 100 157 207 218 167 161 150 150 150 140 144 134 145 196 162 72 84 155 166 149 146 41 85 176 109 102 63 88 160 113 124 106 90 327 18 349 246 170 189 129 96 233 123 4 297 189 232 240 233 190 151 163 177 183 189 193 191 194 195 197 208
216 221 227 219 210 209 212 213 212 212 218 226 227 217 205 203 202 199 197 194 192 187 188 185 177 170 140 98 211 192 171 156 151 149 142 134 128 121 125 145 197 196 223 132 165 148 127 95 78 110 153 100 119 216 133 63 84 124 98 102 81 20 322 256 210 153 131 202 273 104 319 280 237 243 259 233 168 144 162 188 195 201 204 203 202 201 209 213
216 223 226 215 204 204 210 209 208 208 218 233 221 206 201 196 190 189 186 181 178 175 175 168 164 162 135 209 211 130 148 148 150 153 143 136 125 108 109 133 153 190 205 137 143 131 110 86 87 97 73 95 136 180 61 32 50 110 90 65 81 86 287 285 219 152 150 285 3 90 186 269 270 268 281 240 171 154 180 208 214 217 216 212 210 209 217 217
218 226 222 212 202 199 205 207 208 211 223 231 210 193 189 182 178 174 167 162 162 165 162 157 159 145 99 305 117 132 144 147 156 156 146 142 130 114 106 115 116 119 132 132 126 114 96 91 85 85 38 39 89 88 65 20 13 68 95 331 345 145 262 307 293 166 169 266 36 98 201 272 280 283 304 306 154 155 188 222 240 241 235 226 224 217 219 224
215 219 212 202 196 195 201 206 205 209 220 216 181 162 160 161 158 148 151 153 153 157 148 150 169 152 112 222 131 135 153 167 165 158 151 146 136 130 120 110 102 100 113 120 110 98 79 74 71 107 120 67 86 96 68 34 352 1 103 223 275 164 240 304 311 218 158 147 341 141 220 270 287 295 322 339 143 158 194 229 238 238 240 234 228 221 220 226
209 207 202 193 192 195 198 199 193 199 200 169 145 140 139 136 133 130 136 139 142 149 136 134 171 161 68 99 124 160 184 175 169 164 154 146 139 138 129 103 87 97 94 83 84 73 53 54 53 140 87 72 104 97 70 43 311 317 58 210 248 188 171 238 284 294 101 105 252 259 235 251 271 283 301 311 256 178 214 238 240 235 239 239 228 223 220 218
202 204 200 190 192 195 189 183 181 184 161 141 136 132 127 121 119 121 127 131 122 115 96 36 135 155 262 193 168 180 165 158 162 161 152 145 144 144 138 96 86 71 53 40 31 42 40 32 57 79 39 20 92 97 104 196 197 195 194 201 262 214 175 208 246 277 72 98 250 274 265 258 267 273 275 276 242 205 229 238 241 240 237 240 232 223 221 219
200 208 206 194 192 191 181 178 181 169 139 131 134 127 117 110 107 110 129 141 123 104 189 198 138 144 218 199 174 122 132 144 147 154 157 149 149 149 125 94 83 67 65 47 10 33 77 44 53 96 167 221 190 144 163 194 169 162 176 160 169 190 229 249 250 285 122 114 251 244 248 258 264 271 272 269 250 222 237 245 247 248 241 240 236 231 229 224
204 207 201 189 185 180 174 178 178 156 138 137 139 128 116 113 96 88 168 201 216 184 189 182 149 133 111 136 130 118 123 128 130 160 165 155 149 138 98 63 55 49 77 135 153 311 83 84 155 186 194 212 211 180 170 170 137 127 120 108 145 153 275 275 260 299 329 112 255 243 250 263 265 272 268 264 265 246 239 244 246 245 242 239 235 238 235 229
201 194 185 178 174 170 171 179 173 156 149 151 150 133 135 150 124 153 192 264 259 192 115 131 118 111 117 133 143 137 121 90 41 152 169 166 142 131 117 51 76 55 272 156 138 6 63 105 214 219 205 205 206 174 137 105 89 93 104 80 31 152 197 247 239 293 338 86 269 286 293 272 262 268 268 262 264 252 230 228 235 235 235 238 237 242 242 241
184 183 177 172 166 164 172 180 170 159 159 163 162 136 0 116 109 158 148 171 258 120 106 117 86 69 90 135 158 154 91 83 50 300 192 168 120 138 152 82 110 164 229 110 81 25 50 180 238 233 201 153 118 116 102 88 85 81 97 93 14 263 193 289 310 297 357 118 273 334 329 281 265 259 262 256 248 245 232 226 232 231 231 239 238 242 245 247
167 175 169 164 160 160 171 176 164 162 167 171 170 164 103 55 60 148 136 117 216 270 106 133 108 112 91 141 188 174 91 133 151 242 208 157 125 162 138 118 141 161 148 118 120 106 93 246 242 224 138 97 71 74 88 78 74 85 105 113 251 267 155 268 299 290 258 177 274 340 321 283 280 271 262 257 251 256 250 241 244 233 227 234 235 238 239 239
166 169 166 163 158 159 170 162 152 166 175 181 191 200 146 56 35 64 164 96 171 228 245 199 146 151 156 162 186 172 127 139 144 196 194 158 143 148 141 154 147 140 180 164 138 145 206 251 235 102 81 98 95 65 83 92 40 343 135 138 207 246 144 196 285 314 330 349 349 9 331 290 305 333 290 281 287 281 264 252 257 246 234 240 245 246 239 234
174 170 171 168 163 163 165 166 175 172 171 182 208 216 198 35 9 36 134 68 187 297 318 226 198 170 169 140 161 173 132 85 53 191 180 165 150 137 163 174 138 165 205 169 133 157 234 261 186 106 73 83 102 94 120 130 94 321 233 170 183 163 137 108 10 25 24 344 322 41 5 291 305 319 285 293 322 300 293 281 259 251 243 243 248 249 244 239
180 177 178 175 170 168 161 187 195 167 163 188 211 216 222 259 333 24 105 52 307 264 146 177 176 171 170 145 159 153 100 162 318 58 145 157 172 119 153 182 104 183 198 162 137 166 226 310 83 123 112 81 88 104 208 139 107 306 245 178 150 124 112 87 51 51 62 270 285 69 100 268 300 298 261 267 294 287 294 290 265 254 247 240 242 247 246 245
190 185 186 184 178 175 168 160 168 158 160 207 201 200 218 239 276 305 80 46 295 207 141 182 270 164 170 171 160 137 157 198 74 43 111 134 266 59 125 190 126 186 196 117 134 227 156 93 69 94 96 90 101 140 224 137 113 228 235 153 124 106 113 118 92 88 213 257 321 17 119 206 292 285 243 238 297 296 293 280 267 258 250 244 248 252 245 240
194 191 189 190 184 177 156 116 160 172 141 155 181 186 189 197 222 85 87 87 257 152 134 219 148 143 156 141 123 113 175 171 122 232 326 88 206 44 97 192 170 189 186 111 177 255 146 152 168 130 95 107 162 214 219 130 115 235 217 143 125 116 125 119 97 90 353 8 321 314 118 174 270 281 288 306 299 292 277 267 270 275 264 248 245 249 246 245
191 195 196 194 186 184 181 136 195 209 344 87 157 176 172 173 182 74 90 152 208 101 105 149 127 135 135 98 89 91 82 72 122 219 334 79 0 48 129 202 171 171 138 102 166 243 113 177 185 138 124 177 193 244 222 133 133 215 159 94 70 76 79 78 96 97 35 12 260 243 185 200 265 281 295 319 293 269 268 272 276 287 286 251 221 208 194 204
173 195 204 201 191 197 212 249 251 220 150 86 145 159 155 141 94 102 155 209 169 111 44 131 154 157 147 131 116 139 97 49 72 108 54 100 7 22 133 185 103 133 46 47 102 261 325 207 171 119 151 180 151 89 42 115 128 123 88 65 42 28 37 44 62 79 53 286 255 232 200 199 268 277 262 252 228 233 264 304 313 336 7 103 157 161 164 174
135 178 203 202 196 197 199 230 237 219 120 137 146 147 135 74 63 141 191 217 121 115 107 144 180 147 155 155 152 154 98 62 145 132 121 133 41 23 97 98 56 69 27 31 43 326 343 10 222 311 170 127 102 64 19 26 78 90 79 80 58 353 13 17 2 52 146 255 264 266 221 179 235 261 250 253 257 243 244 330 139 50 56 123 186 207 201 195
131 129 186 195 196 195 189 191 206 186 146 153 149 135 104 82 190 200 204 180 143 188 167 167 185 162 161 153 145 155 125 105 182 154 142 145 167 185 174 178 146 84 233 201 165 328 327 269 240 356 336 126 104 71 19 1 27 74 93 97 91 332 7 355 306 185 227 249 260 300 322 203 233 246 254 271 274 248 187 164 185 190 203 234 250 252 246 214
145 108 155 190 192 187 180 160 155 161 163 164 149 83 87 128 207 217 209 200 186 175 149 140 150 153 151 142 156 163 118 133 182 169 150 140 167 209 236 222 176 131 181 183 147 150 288 304 312 85 319 200 136 131 132 281 149 132 137 132 136 146 144 249 259 260 260 261 274 311 310 263 278 264 239 251 263 251 190 185 199 192 201 225 231 238 257 240
145 141 145 192 193 188 180 149 133 146 168 167 126 96 136 184 213 201 199 218 174 104 105 125 129 140 154 158 179 167 107 146 175 147 133 135 154 206 236 249 214 120 113 149 161 170 190 286 224 173 213 191 175 178 160 152 167 179 153 135 155 163 165 204 210 213 247 271 290 300 262 208 221 271 243 242 272 287 281 251 234 223 224 234 249 249 249 238
145 162 151 183 195 203 205 178 148 143 156 144 118 144 180 203 213 190 190 199 143 72 79 117 123 139 176 193 189 178 145 174 181 144 147 165 173 192 196 210 204 160 132 162 203 164 171 249 239 208 180 171 180 195 144 122 131 234 137 116 182 191 156 159 190 182 182 299 291 259 234 211 211 271 271 258 268 281 295 310 326 304 269 264 281 272 252 237
113 150 172 185 197 207 209 200 196 199 162 118 135 187 199 201 195 182 187 184 166 131 115 119 117 140 178 178 194 198 154 127 169 157 174 192 197 195 194 206 197 185 170 167 191 158 150 268 283 10 52 177 176 168 142 142 177 198 150 175 213 179 130 130 261 310 91 261 268 208 248 282 326 286 271 259 263 281 306 305 296 287 290 305 304 289 260 246
75 63 205 206 207 203 197 194 190 184 149 117 169 197 198 177 192 185 270 210 160 137 127 143 161 150 167 172 188 195 167 118 162 170 187 204 229 200 198 226 197 189 190 177 200 194 149 232 301 73 175 252 187 123 73 12 135 135 186 213 193 90 89 112 220 342 41 251 270 238 247 279 326 273 289 65 187 278 282 270 271 284 296 301 299 301 284 256
35 39 240 232 218 198 192 190 173 147 91 111 192 203 144 121 224 49 6 348 138 129 135 164 162 144 167 175 183 185 167 158 178 184 180 193 237 203 184 205 201 195 198 176 193 228 145 196 298 48 183 283 1 114 90 338 72 138 189 195 123 121 238 121 161 210 192 243 275 277 262 259 221 225 196 105 186 296 290 283 287 281 277 282 297 306 301 289
64 92 320 218 200 192 185 182 170 138 91 133 203 217 165 214 263 236 68 18 35 107 154 185 165 142 172 169 159 170 174 174 176 182 180 182 233 217 182 187 203 198 193 168 181 225 128 182 261 323 207 305 11 147 189 250 344 35 105 141 110 139 170 172 172 168 163 200 255 277 287 256 228 187 158 195 248 287 285 295 295 260 260 284 293 287 284 295
131 84 318 182 179 174 168 169 164 138 133 162 200 219 95 7 275 242 132 72 21 69 160 212 167 149 175 172 155 166 179 176 172 182 197 183 212 246 196 185 185 188 185 178 186 191 108 191 225 307 334 46 196 211 181 168 169 159 158 182 197 98 112 186 196 136 144 169 212 256 272 261 238 150 159 201 222 220 221 175 93 199 215 236 267 272 267 300
55 79 197 175 167 156 145 145 151 125 131 167 189 198 176 200 283 267 131 108 89 0 132 142 138 147 161 163 169 175 164 162 175 183 209 196 197 242 213 185 169 159 163 177 196 193 180 190 168 172 282 202 226 240 192 182 184 176 180 191 189 164 133 163 239 250 145 177 189 183 265 273 241 146 171 193 184 185 173 124 62 285 283 290 303 310 278 348
77 106 180 167 163 153 138 135 200 129 139 188 173 181 190 197 259 274 153 115 109 301 87 106 135 141 140 153 180 171 154 165 186 182 201 210 196 205 223 191 168 160 155 172 202 195 151 117 132 181 221 212 242 260 212 200 209 211 210 189 171 163 147 159 212 238 176 225 213 134 257 275 237 128 146 164 166 185 175 174 278 286 289 302 329 341 329 288
128 210 180 163 166 160 139 171 169 157 202 177 151 168 184 186 208 224 177 152 157 159 170 251 146 128 134 118 143 159 158 173 189 187 198 208 202 224 263 209 167 158 153 166 192 186 131 117 142 212 311 330 312 319 350 18 180 239 250 167 141 176 173 157 180 183 160 212 215 148 243 265 272 88 101 146 160 274 243 194 272 291 302 309 322 317 289 268
178 272 333 174 180 183 180 186 180 188 196 156 151 181 192 193 196 193 186 193 190 153 155 199 195 133 162 83 79 163 186 179 188 193 183 186 206 306 353 302 175 161 167 182 181 184 192 174 144 131 355 334 337 337 331 329 198 208 226 182 175 181 163 131 145 152 195 216 198 179 236 255 252 76 60 75 73 29 6 8 25 342 315 311 309 301 289 289
176 76 328 218 200 200 199 186 181 188 184 175 180 185 186 200 203 195 186 183 190 169 167 190 152 123 122 79 67 352 308 117 172 195 133 149 246 2 12 353 95 145 191 335 150 174 183 181 158 160 195 215 214 206 220 225 183 218 228 194 190 180 168 172 165 172 226 226 200 191 238 256 256 193 62 39 37 4 331 329 336 334 295 286 289 295 293 287
104 169 260 273 261 249 243 122 136 176 180 183 193 189 188 198 206 191 184 183 190 184 179 170 139 130 136 153 167 217 291 29 77 27 92 104 309 314 -0 17 50 56 6 24 39 118 150 193 191 187 206 209 197 209 206 158 151 198 213 193 190 190 182 175 161 197 220 225 219 224 235 257 264 255 259 2 339 305 306 309 302 302 301 292 283 279 278 273
201 201 178 171 162 236 226 212 186 193 184 184 188 185 191 199 199 179 192 202 191 183 185 171 157 166 178 187 199 216 224 177 94 200 177 129 305 307 358 54 47 6 356 20 10 61 121 212 213 192 214 208 179 197 180 158 177 200 202 195 192 191 184 182 201 217 209 200 240 237 221 244 263 262 261 8 292 292 330 282 274 272 276 280 276 274 278 281
215 270 199 185 178 195 207 207 196 201 211 194 187 182 191 200 197 186 193 205 189 184 190 189 187 191 189 186 192 205 205 199 207 213 184 138 217 325 -0 32 38 5 12 34 358 65 130 217 223 159 219 214 170 107 101 139 180 191 186 198 199 194 190 196 215 220 189 185 242 239 192 221 257 269 254 193 262 287 291 276 275 264 257 264 270 278 286 290
211 306 290 248 189 194 200 177 171 194 212 207 204 202 193 197 203 198 170 157 189 202 197 205 206 202 197 187 184 193 197 196 212 220 196 168 175 166 30 325 355 14 34 55 8 37 125 219 69 107 257 245 178 106 68 91 68 21 186 196 199 204 206 209 222 228 207 222 253 258 234 242 259 279 286 257 254 276 281 281 285 276 269 268 273 282 288 282
173 51 297 308 307 213 175 144 159 188 210 210 223 229 208 203 205 202 175 169 185 190 192 209 212 198 197 193 188 199 199 190 200 206 184 173 184 178 177 201 214 16 30 55 13 9 75 338 36 72 316 273 217 179 156 117 113 290 274 249 230 219 218 224 235 241 240 248 258 271 277 268 264 279 289 281 271 277 286 285 277 271 274 284 286 280 277 273
218 330 61 20 307 228 173 164 163 178 200 206 215 219 220 219 203 190 190 194 189 178 186 204 204 186 195 205 206 218 210 185 181 188 180 181 187 181 176 180 160 136 110 118 80 36 81 117 21 71 217 259 241 206 226 166 124 217 263 257 247 232 216 214 212 211 217 232 254 273 271 267 265 243 276 284 286 277 276 278 275 275 285 302 284 272 269 271
220 268 256 78 312 246 196 186 169 179 200 205 211 212 213 225 195 173 193 212 198 190 190 196 190 170 189 207 213 219 205 157 138 138 150 156 129 105 118 145 146 149 162 154 132 115 136 146 132 135 194 253 233 176 194 141 129 221 239 240 239 236 233 231 231 229 214 200 225 246 246 260 276 270 265 278 282 275 272 276 278 286 320 331 286 273 266 265